timestamp,wind_dir_avg,wind_spd_avg,wind_spd_max_dir,wind_spd_gust,battery_voltage,lat,long
2024-03-08 00:04:00+00:00,73.0,9.12,69.0,14.44,12.17,47.59359,-54.27349
2024-03-08 00:14:00+00:00,74.0,12.29,75.0,14.65,12.17,47.59359,-54.27349
2024-03-08 00:24:00+00:00,75.0,12.75,72.0,14.72,12.17,47.59359,-54.27349
2024-03-08 00:34:00+00:00,75.0,12.52,74.0,14.85,12.17,47.59359,-54.27349
2024-03-08 00:44:00+00:00,67.0,9.13,77.0,13.38,12.17,47.59359,-54.27349
2024-03-08 00:54:00+00:00,74.0,13.2,78.0,14.58,12.17,47.59359,-54.27349
2024-03-08 01:04:00+00:00,71.0,13.41,69.0,15.04,12.17,47.59359,-54.27349
2024-03-08 01:14:00+00:00,68.0,12.75,68.0,15.01,12.17,47.59359,-54.27349
2024-03-08 01:24:00+00:00,71.0,12.74,69.0,14.84,12.17,47.59359,-54.27349
2024-03-08 01:34:00+00:00,71.0,12.53,75.0,14.85,12.17,47.59359,-54.27349
2024-03-08 01:44:00+00:00,71.0,12.77,73.0,15.04,12.17,47.59359,-54.27349
2024-03-08 01:54:00+00:00,72.0,11.52,76.0,14.12,12.17,47.59359,-54.27349
2024-03-08 02:04:00+00:00,70.0,12.26,75.0,14.99,12.17,47.59359,-54.27349
2024-03-08 02:14:00+00:00,72.0,12.32,74.0,14.19,12.09,47.59359,-54.27349
2024-03-08 02:24:00+00:00,70.0,11.28,73.0,13.65,12.09,47.59359,-54.27349
2024-03-08 02:34:00+00:00,72.0,11.82,74.0,13.84,12.09,47.59359,-54.27349
2024-03-08 02:44:00+00:00,68.0,11.49,69.0,13.39,12.09,47.59359,-54.27349
2024-03-08 02:54:00+00:00,69.0,11.94,72.0,13.84,12.09,47.59359,-54.27349
2024-03-08 03:04:00+00:00,72.0,11.78,74.0,12.68,12.09,47.59359,-54.27349
2024-03-08 03:14:00+00:00,71.0,12.13,62.0,13.54,12.09,47.59359,-54.27349
2024-03-08 03:24:00+00:00,72.0,10.94,72.0,13.07,12.09,47.59359,-54.27349
2024-03-08 03:34:00+00:00,65.0,12.64,61.0,13.9,12.09,47.59359,-54.27349
2024-03-08 03:44:00+00:00,68.0,12.4,63.0,13.48,12.09,47.59359,-54.27349
2024-03-08 03:54:00+00:00,66.0,12.53,66.0,13.84,12.09,47.59359,-54.27349
2024-03-08 04:04:00+00:00,60.0,13.46,58.0,15.38,12.09,47.59359,-54.27349
2024-03-08 04:14:00+00:00,56.0,13.64,49.0,15.83,12.09,47.59359,-54.27349
2024-03-08 04:24:00+00:00,60.0,13.22,56.0,15.18,12.09,47.59359,-54.27349
2024-03-08 04:34:00+00:00,64.0,12.8,61.0,14.5,12.09,47.59359,-54.27349
2024-03-08 04:44:00+00:00,54.0,13.76,46.0,15.32,12.09,47.59359,-54.27349
2024-03-08 04:54:00+00:00,53.0,14.46,51.0,15.88,12.09,47.59359,-54.27349
2024-03-08 05:04:00+00:00,57.0,13.6,61.0,15.28,12.09,47.59359,-54.27349
2024-03-08 05:14:00+00:00,58.0,13.49,72.0,17.88,12.09,47.59359,-54.27349
2024-03-08 05:24:00+00:00,59.0,12.44,53.0,15.14,12.09,47.59359,-54.27349
2024-03-08 05:34:00+00:00,63.0,12.48,60.0,14.5,12.09,47.59359,-54.27349
2024-03-08 05:44:00+00:00,69.0,12.43,75.0,16.55,12.09,47.59359,-54.27349
2024-03-08 05:54:00+00:00,67.0,12.72,66.0,14.19,12.09,47.59359,-54.27349
2024-03-08 06:04:00+00:00,61.0,12.89,53.0,15.11,12.09,47.59359,-54.27349
2024-03-08 06:14:01+00:00,64.0,13.0,66.0,17.08,12.01,47.59359,-54.27349
2024-03-08 06:24:01+00:00,66.0,14.74,71.0,20.88,12.01,47.59359,-54.27349
2024-03-08 06:34:01+00:00,63.0,12.73,69.0,16.08,12.01,47.59359,-54.27349
2024-03-08 06:44:01+00:00,67.0,11.97,64.0,14.01,12.01,47.59359,-54.27349
2024-03-08 06:54:01+00:00,69.0,13.0,74.0,20.65,12.01,47.59359,-54.27349
2024-03-08 07:04:01+00:00,63.0,12.93,61.0,15.1,12.01,47.59359,-54.27349
2024-03-08 07:14:00+00:00,65.0,13.77,75.0,18.36,12.01,47.59359,-54.27349
2024-03-08 07:24:00+00:00,65.0,13.31,54.0,15.5,12.01,47.59359,-54.27349
2024-03-08 07:34:00+00:00,66.0,11.41,64.0,14.58,12.01,47.59359,-54.27349
2024-03-08 07:44:00+00:00,67.0,12.82,69.0,14.35,12.01,47.59359,-54.27349
2024-03-08 07:54:00+00:00,67.0,12.13,67.0,14.19,12.01,47.59359,-54.27349
2024-03-08 08:04:00+00:00,66.0,13.78,68.0,18.08,12.01,47.59359,-54.27349
2024-03-08 08:14:00+00:00,61.0,11.81,62.0,14.79,11.93,47.59359,-54.27349
2024-03-08 08:24:00+00:00,60.0,13.27,60.0,14.96,11.93,47.59359,-54.27349
2024-03-08 08:34:00+00:00,61.0,13.41,59.0,15.16,11.93,47.59359,-54.27349
2024-03-08 08:44:00+00:00,58.0,13.4,59.0,14.85,11.93,47.59359,-54.27349
2024-03-08 08:54:00+00:00,64.0,12.22,61.0,14.47,11.93,47.59359,-54.27349
2024-03-08 09:04:00+00:00,60.0,12.77,61.0,15.02,11.93,47.59359,-54.27349
2024-03-08 11:14:00+00:00,55.0,15.04,54.0,16.46,11.86,47.59359,-54.27349
2024-03-08 11:24:00+00:00,53.0,14.76,51.0,16.05,11.86,47.59359,-54.27349
2024-03-08 11:34:00+00:00,58.0,14.81,63.0,18.63,11.86,47.59359,-54.27349
2024-03-08 11:44:00+00:00,57.0,13.56,52.0,16.02,11.86,47.59359,-54.27349
2024-03-08 11:54:00+00:00,55.0,15.49,59.0,17.98,11.86,47.59359,-54.27349
2024-03-08 12:04:00+00:00,55.0,14.94,52.0,16.61,11.86,47.59359,-54.27349
2024-03-08 12:14:00+00:00,53.0,12.74,49.0,15.9,12.33,47.59359,-54.27349
2024-03-08 12:24:00+00:00,57.0,15.12,61.0,17.27,12.33,47.59359,-54.27349
2024-03-08 12:34:00+00:00,56.0,14.7,53.0,17.95,12.33,47.59359,-54.27349
2024-03-08 12:44:00+00:00,60.0,14.16,56.0,16.12,12.33,47.59359,-54.27349
2024-03-08 12:54:00+00:00,52.0,14.32,48.0,16.9,12.33,47.59359,-54.27349
2024-03-08 13:04:00+00:00,54.0,15.17,60.0,18.77,12.33,47.59359,-54.27349
2024-03-08 13:14:00+00:00,52.0,14.76,55.0,17.77,12.89,47.59359,-54.27349
2024-03-08 13:24:00+00:00,56.0,14.13,49.0,16.12,12.89,47.59359,-54.27349
2024-03-08 13:34:00+00:00,53.0,12.77,53.0,15.71,12.89,47.59359,-54.27349
2024-03-08 13:44:00+00:00,53.0,15.57,43.0,17.96,12.89,47.59359,-54.27349
2024-03-08 13:54:00+00:00,54.0,17.79,59.0,23.76,12.89,47.59359,-54.27349
2024-03-08 14:04:00+00:00,47.0,16.74,46.0,19.52,12.89,47.59359,-54.27349
2024-03-08 14:14:00+00:00,50.0,16.02,58.0,18.05,12.97,47.59359,-54.27349
2024-03-08 14:24:00+00:00,52.0,15.98,57.0,22.08,12.97,47.59359,-54.27349
2024-03-08 14:34:00+00:00,52.0,17.85,58.0,23.8,12.97,47.59359,-54.27349
2024-03-08 14:44:00+00:00,52.0,16.71,60.0,20.05,12.97,47.59359,-54.27349
2024-03-08 14:54:00+00:00,52.0,14.91,52.0,16.87,12.97,47.59359,-54.27349
2024-03-08 15:04:00+00:00,57.0,15.18,62.0,19.44,12.97,47.59359,-54.27349
2024-03-08 15:14:01+00:00,54.0,15.68,61.0,19.2,12.73,47.59359,-54.27349
2024-03-08 15:24:01+00:00,52.0,15.62,53.0,19.91,12.73,47.59359,-54.27349
2024-03-08 15:34:01+00:00,57.0,13.9,52.0,16.34,12.73,47.59359,-54.27349
2024-03-08 15:44:01+00:00,51.0,14.8,51.0,16.64,12.73,47.59359,-54.27349
2024-03-08 15:54:01+00:00,49.0,15.68,48.0,19.27,12.73,47.59359,-54.27349
2024-03-08 16:04:01+00:00,52.0,15.66,57.0,18.6,12.73,47.59359,-54.27349
2024-03-08 16:14:00+00:00,50.0,15.49,53.0,18.77,12.65,47.59359,-54.27349
2024-03-08 16:24:00+00:00,50.0,14.67,48.0,16.59,12.65,47.59359,-54.27349
2024-03-08 16:34:00+00:00,48.0,15.68,49.0,17.7,12.65,47.59359,-54.27349
2024-03-08 16:44:00+00:00,48.0,16.78,49.0,21.21,12.65,47.59359,-54.27349
2024-03-08 16:54:00+00:00,52.0,13.26,51.0,15.73,12.65,47.59359,-54.27349
2024-03-08 17:04:00+00:00,49.0,15.71,51.0,19.57,12.65,47.59359,-54.27349
2024-03-08 17:14:00+00:00,50.0,15.02,50.0,17.21,12.73,47.59359,-54.27349
2024-03-08 17:24:00+00:00,50.0,14.14,49.0,16.99,12.73,47.59359,-54.27349
2024-03-08 17:34:00+00:00,51.0,14.73,36.0,17.93,12.73,47.59359,-54.27349
2024-03-08 17:44:00+00:00,52.0,15.0,51.0,17.11,12.73,47.59359,-54.27349
2024-03-08 17:54:00+00:00,52.0,14.64,50.0,16.52,12.73,47.59359,-54.27349
2024-03-08 18:04:00+00:00,49.0,15.95,51.0,17.98,12.73,47.59359,-54.27349
2024-03-08 18:14:00+00:00,52.0,15.56,48.0,17.31,12.73,47.59359,-54.27349
2024-03-08 18:24:00+00:00,51.0,14.14,46.0,16.7,12.73,47.59359,-54.27349
2024-03-08 18:34:00+00:00,52.0,14.54,50.0,16.91,12.73,47.59359,-54.27349
2024-03-08 18:44:00+00:00,54.0,14.56,57.0,16.11,12.73,47.59359,-54.27349
2024-03-08 18:54:00+00:00,54.0,14.88,49.0,16.56,12.73,47.59359,-54.27349
2024-03-08 19:04:00+00:00,55.0,15.3,54.0,16.71,12.73,47.59359,-54.27349
2024-03-08 19:14:00+00:00,51.0,12.72,47.0,16.16,12.57,47.59359,-54.27349
2024-03-08 19:24:00+00:00,52.0,15.87,51.0,19.21,12.57,47.59359,-54.27349
2024-03-08 19:34:00+00:00,53.0,16.18,62.0,18.47,12.57,47.59359,-54.27349
2024-03-08 19:44:00+00:00,53.0,16.36,61.0,18.83,12.57,47.59359,-54.27349
2024-03-08 19:54:00+00:00,53.0,15.7,51.0,18.53,12.57,47.59359,-54.27349
2024-03-08 20:04:00+00:00,54.0,16.31,51.0,20.82,12.57,47.59359,-54.27349
2024-03-08 20:14:00+00:00,55.0,15.15,60.0,18.95,12.33,47.59359,-54.27349
2024-03-08 20:24:00+00:00,54.0,15.14,52.0,19.19,12.33,47.59359,-54.27349
2024-03-08 20:34:00+00:00,55.0,16.51,53.0,18.78,12.33,47.59359,-54.27349
2024-03-08 20:44:00+00:00,56.0,18.86,56.0,23.22,12.33,47.59359,-54.27349
2024-03-08 20:54:00+00:00,53.0,16.56,61.0,21.74,12.33,47.59359,-54.27349
2024-03-08 21:04:00+00:00,55.0,16.02,60.0,18.2,12.33,47.59359,-54.27349
2024-03-08 21:14:00+00:00,53.0,17.54,54.0,22.19,12.17,47.59359,-54.27349
2024-03-08 21:24:00+00:00,53.0,16.78,60.0,22.19,12.17,47.59359,-54.27349
2024-03-08 21:34:00+00:00,52.0,16.45,58.0,19.46,12.17,47.59359,-54.27349
2024-03-08 21:44:00+00:00,55.0,17.17,54.0,21.36,12.17,47.59359,-54.27349
2024-03-08 21:54:00+00:00,53.0,16.6,52.0,18.96,12.17,47.59359,-54.27349
2024-03-08 22:04:00+00:00,52.0,16.66,49.0,19.02,12.17,47.59359,-54.27349
